SCP
0 0 0 0 0 0 0 0 0 0 0 0 0 0 0 0 0 0 0 0 0 0 0 0 0 0 0 0 0 0 0 0 0 0 0 0 0 0 0 0 0 0 0
0 0 0 0 0 0 0 0 0 0 0 0 0 0 0 0 0 0 0 0 0 0 0 0 0 0 0 0 0 0 0 0 0 0 0 0 0 0 0 0 0 0 0
0 0 0 0 0 0 0 0 0 0 0 0 0 0 0 0 0 0 0 0 0 0 0 0 0 0 0 0 0 0 0 0 0 0 0 0 0 0 0 0 0 0 0
0 0 0 0 0 0 0 0 0 0 0 0 0 0 0 0 0 0 0 0 0 0 0 0 0 0 0 0 0 0 0 0 0 0 0 0 0 0 0 0 0 0 0
0 0 0 0 0 0 0 0 0 0 0 0 0 0 0 0 0 0 0 0 0 0 0 0 0 0 0 0 0 0 0 0 0 0 0 0 0 0 0 0 0 0 0
0 0 0 0 0 0 0 0 0 0 0 0 0 0 0 0 0 0 0 0 0 0 0 0 0 0 0 0 0 0 0 0 0 0 0 0 0 0 0 0 0 0 0
0 0 0 0 0 0 0 0 0 0 0 0 0 0 0 0 0 0 0 0 0 0 0 0 0 0 0 0 0 0 0 0 0 0 0 0 0 0 0 0 0 0 0
0 0 0 0 0 0 0 0 0 0 0 0 0 0 0 0 0 0 0 0 0 0 0 0 0 0 0 0 0 0 0 0 0 0 0 0 0 0 0 0 0 0 0
0 0 0 0 0 0 0 0 0 0 0 0 0 0 0 0 0 0 0 0 0 0 0 0 0 0 0 0 0 0 0 0 0 0 0 0 0 0 0 0 0 0 0
0 0 0 0 0 0 0 0 0 0 0 0 0 0 0 0 0 0 0 0 0 0 0 0 0 0 0 0 0 0 0 0 0 0 0 0 0 0 0 0 0 0 0
0 0 0 0 0 0 0 0 0 0 0 0 0 0 0 0 0 0 0 0 0 0 0 0 0 0 0 0 0 0 0 0 0 0 0 0 0 0 0 0 0 0 0
0 0 0 0 0 0 0 0 0 0 0 0 0 0 0 0 0 0 0 0 0 0 0 0 0 0 0 0 0 0 0 0 0 0 0 0 0 0 0 0 0 0 0
0 0 0 0 0 0 0 0 0 0 0 0 0 0 0 0 0 0 0 0 0 0 0 0 0 0 0 0 0 0 0 0 0 0 0 0 0 0 0 0 0 0 0
0 0 0 0 0 0 0 0 0 0 0 0 0 0 0 0 0 0 0 0 0 0 0 0 0 0 0 0 0 0 0 0 0 0 0 0 0 0 0 0 0 0 0
0 0 0 0 0 0 0 0 0 0 0 0 0 0 0 0 0 0 0 0 0 0 0 0 0 0 0 0 0 0 0 0 0 0 0 0 0 0 0 0 0 0 0
0 0 0 0 0 0 0 0 0 0 0 -0 0 0 0 0 0 0 0 0 0 0 0 0 0 0 0 0 0 0 0 0 0 0 0 0 0 0 0 0 0 0 0
0 0 0 0 0 0 0 0 0 0 -0 -0 0 0 0 0 0 0 0 0 0 0 0 0 0 0 0 0 0 0 0 0 0 0 0 0 0 0 0 0 0 0 0
0 0 0 0 0 0 0 0 0 0 -0 -0 0 0 0 0 0 0 0 0 0 0 0 0 0 0 0 0 0 0 0 0 0 0 0 0 0 0 0 0 0 0 0
0 0 0 0 0 0 0 0 0 0 -0 -0 -0 0 0 0 0 0 0 0 0 0 0 0 0 0 0 0 0 0 0 0 0 0 0 0 0 0 0 0 0 0 0
0 0 0 0 0 0 0 0 0 0 -0 0 -0 0 0 0 0 0 0 0 0 0 0 0 0 0 0 0 0 0 0 0 0 0 0 0 0 0 0 0 0 0 0
0 0 0 0 0 0 0 0 0 0 0 0 0 0 0 0 0 0 0 0 0 0 0 0 0 0 0 0 0 0 0 0 0 0 0 0 0 0 0 0 0 0 0
0 0 0 0 0 0 0 0 0 0 0 0 0 0 0 0 0 0 0 0 0 0 0 0 0 0 0 0 0 0 0 0 0 0 0 0 0 0 0 0 0 0 0
0 0 0 0 0 0 0 0 0 0 0 0 0 0 0 0 0 0 0 0 0 0 0 0 0 0 0 0 0 0 0 0 0 0 0 0 0 0 0 0 0 0 0
0 0 0 0 0 0 0 0 0 0 0 0 0 0 0 0 0 0 0 0 0 0 0 0 0 0 0 0 0 0 0 0 0 0 0 0 0 0 0 0 0 0 0
0 0 0 0 0 0 0 0 0 0 0 0 0 0 0 0 0 0 0 0 0 0 0 0 0 0 0 0 0 0 0 0 0 0 0 0 0 0 0 0 0 0 0
0 0 0 0 0 0 0 0 0 0 0 0 0 0 0 0 0 0 0 0 0 0 0 0 0 0 0 0 0 0 0 0 0 0 0 0 0 0 0 0 0 0 0
Wind_Speed
7 9 11 11 11 11 11 11 10 11 11 11 10 10 11 11 10 11 11 11 11 10 10 10 9 9 10 9 9 9 8 8 8 8 9 9 9 9 10 10 8 6 9
9 11 12 12 12 12 11 11 11 11 10 10 10 10 10 10 10 10 10 10 10 10 10 9 9 9 9 8 8 8 7 6 5 5 7 8 9 9 10 10 10 7 9
11 11 11 12 12 12 12 12 11 10 10 10 10 10 10 10 9 9 9 9 9 9 9 8 8 8 8 8 7 7 6 4 4 3 2 3 6 9 9 9 10 10 9
12 11 11 13 12 12 12 11 11 11 11 11 10 10 9 9 8 8 8 8 8 8 8 7 7 8 7 7 6 5 4 4 3 4 2 4 5 9 10 9 9 9 9
13 12 11 13 13 12 11 11 11 11 11 10 9 9 9 8 8 7 7 7 7 7 7 6 6 7 6 6 5 4 4 4 5 3 3 5 5 9 10 9 9 9 8
13 12 11 13 13 12 12 12 11 11 10 10 9 9 8 8 7 7 6 6 6 6 6 6 6 6 6 5 4 4 4 4 5 2 4 6 5 8 9 9 9 8 8
12 12 11 13 13 13 12 12 11 10 10 9 9 9 8 7 7 7 6 6 6 6 5 5 5 5 4 4 3 4 5 5 2 2 5 6 6 9 9 8 8 8 7
11 12 11 13 13 13 12 11 11 10 9 8 8 7 7 7 6 6 6 6 6 6 6 5 5 4 3 2 2 4 5 5 3 4 7 6 8 9 9 9 8 8 7
9 10 10 9 10 12 12 11 10 8 7 7 6 5 5 6 6 6 6 6 5 5 5 5 5 4 2 1 1 2 4 5 3 2 8 5 8 9 9 8 8 8 8
7 7 8 9 9 8 8 9 8 7 6 5 4 4 4 4 5 5 6 6 5 5 5 4 4 3 2 2 1 2 4 4 2 6 5 6 10 9 9 8 8 8 8
6 6 6 6 6 7 7 8 7 7 5 5 4 5 5 3 4 4 7 6 5 5 4 3 2 2 1 2 2 3 4 1 3 6 5 9 10 10 9 9 8 8 8
5 6 6 6 5 5 5 5 3 3 3 3 2 2 2 2 3 5 7 6 5 4 3 3 3 3 3 2 3 3 1 1 5 6 6 10 11 10 10 9 9 9 9
5 4 5 5 5 5 3 3 2 1 1 2 3 2 2 2 2 3 3 3 3 3 2 3 3 3 3 2 2 2 1 4 4 5 6 11 11 10 10 10 10 10 10
5 4 4 4 5 6 4 2 2 1 2 2 2 3 2 1 1 2 2 2 2 1 1 1 1 1 0 2 2 3 5 4 5 4 5 11 11 10 10 10 10 10 10
4 4 5 5 5 5 3 1 3 2 2 3 2 2 2 2 2 1 2 2 2 1 1 0 2 3 3 4 5 5 5 5 7 6 4 10 11 11 11 11 11 11 11
5 5 3 3 4 4 3 3 3 2 2 2 1 2 2 2 1 2 2 2 2 2 1 2 3 3 4 4 4 5 5 5 6 6 5 6 10 11 11 11 12 12 11
6 6 3 3 5 6 5 3 3 3 3 2 2 2 3 3 3 2 2 2 2 2 2 3 3 3 3 4 4 5 5 4 4 6 5 4 4 8 9 11 12 12 12
7 7 4 4 6 5 4 3 3 4 3 3 3 4 4 4 5 3 2 2 3 3 3 3 3 4 4 4 3 4 4 4 5 5 4 4 3 4 6 9 11 12 13
6 7 5 4 5 4 3 3 4 4 3 3 4 4 5 5 4 3 2 2 3 3 2 3 3 3 3 3 3 3 3 4 4 5 5 5 4 3 3 6 10 11 12
4 5 6 4 5 4 2 3 3 4 3 4 4 4 5 4 4 3 1 3 4 3 3 3 3 3 2 2 4 4 3 3 4 5 5 4 4 4 4 4 3 7 13
4 5 6 5 5 3 2 3 3 2 3 3 3 3 3 4 4 3 3 4 3 3 3 4 2 2 2 3 4 3 3 4 4 4 3 3 4 4 4 5 3 3 5
4 4 6 5 5 5 2 3 3 3 3 3 2 3 4 5 4 3 3 3 3 3 4 4 3 2 1 2 2 2 2 3 3 4 3 3 4 4 5 6 5 5 5
4 4 5 5 6 5 4 3 3 3 2 2 3 2 4 5 5 5 4 3 3 3 3 3 3 2 1 1 2 2 2 2 1 2 3 4 4 4 4 5 6 6 7
5 4 5 5 6 5 5 3 3 3 2 2 2 2 3 4 4 4 4 4 4 3 2 2 3 2 2 1 1 2 2 3 3 2 2 3 4 5 5 5 6 6 7
6 4 4 6 6 6 5 3 2 3 2 2 2 3 4 3 3 3 4 4 4 3 4 5 4 3 2 2 2 2 3 2 2 3 2 1 2 3 4 4 4 5 6
6 5 5 6 6 5 4 4 3 3 3 3 3 3 3 2 2 3 3 3 3 3 4 3 3 4 3 3 3 2 2 2 2 2 3 2 2 2 4 3 4 4 4
Wind_Direction
88 90 84 84 85 84 84 82 83 84 86 88 87 85 84 84 83 82 79 76 74 74 73 72 74 76 77 76 76 75 74 75 78 81 81 76 71 64 57 48 43 51 52
101 94 88 86 86 86 85 85 85 85 86 88 87 86 85 86 86 83 81 79 79 77 74 73 72 75 74 74 74 72 69 68 73 80 85 82 75 68 59 54 51 50 49
98 97 90 87 88 86 85 84 83 83 85 89 88 87 88 86 86 85 84 84 83 81 78 74 72 73 72 71 69 68 63 55 49 46 58 91 82 70 62 54 50 49 46
92 88 88 89 88 86 86 85 84 85 85 85 86 87 87 87 85 84 85 86 84 84 82 80 76 74 72 73 70 65 51 24 5 359 49 75 73 71 63 54 48 45 44
90 91 90 90 88 88 88 87 85 86 86 86 86 87 86 85 85 85 87 90 89 88 85 83 81 77 73 70 67 55 29 359 347 20 64 76 69 68 61 54 47 44 42
98 96 96 95 92 90 89 89 88 86 84 84 83 82 83 83 83 84 85 89 91 88 83 80 81 79 74 67 56 37 9 351 337 62 84 80 73 67 61 54 48 44 39
101 103 104 102 98 93 90 89 88 86 84 83 81 79 81 82 81 80 78 82 85 85 83 83 84 84 78 67 44 16 350 338 303 76 88 83 76 71 62 53 46 43 40
106 111 113 112 108 101 95 90 87 85 84 83 82 84 85 86 86 84 83 83 85 85 83 83 90 93 89 75 39 2 346 338 18 82 91 82 77 70 59 50 44 42 39
112 119 127 130 119 109 102 98 94 93 93 93 95 99 101 101 99 94 88 85 92 94 93 90 93 96 109 117 48 347 331 332 348 47 85 77 73 66 59 50 43 40 37
119 121 128 134 133 130 123 120 120 121 124 127 138 153 152 140 128 115 107 99 101 104 106 105 107 115 128 153 165 294 306 331 33 66 74 76 71 66 59 51 43 39 38
122 125 123 124 130 134 135 137 151 153 163 166 186 206 202 180 161 131 108 113 116 124 131 134 142 153 180 204 223 263 299 314 90 78 67 72 70 64 58 52 48 43 41
124 121 120 122 122 115 109 132 160 146 161 175 149 175 172 103 98 111 124 132 137 143 159 188 198 221 237 221 221 237 285 94 82 85 73 71 67 62 56 52 50 48 44
101 99 111 113 114 111 99 97 89 97 126 100 96 87 78 96 126 133 147 159 169 178 196 190 206 220 211 190 164 154 100 73 82 79 73 69 65 62 56 51 50 49 45
94 83 87 94 95 90 85 102 106 75 73 62 57 81 70 61 69 98 120 139 149 144 152 177 202 183 114 114 110 99 85 82 95 86 74 70 66 62 58 52 51 48 45
104 85 57 60 76 89 89 80 90 65 71 85 41 68 74 81 87 94 102 90 79 82 95 10 61 63 51 51 58 64 72 79 92 92 80 73 68 62 58 53 52 50 47
120 103 88 86 97 112 104 84 88 100 87 78 59 81 87 91 102 88 88 85 75 57 36 61 81 71 66 61 52 57 61 66 89 105 106 83 73 65 58 54 53 50 47
123 113 108 96 76 68 60 58 72 68 68 59 34 56 74 74 68 71 71 84 89 72 51 49 68 69 80 75 60 65 58 49 76 96 105 106 89 73 66 60 56 49 46
123 118 107 92 85 76 66 52 58 58 51 52 34 21 42 65 71 55 51 61 72 67 62 60 50 60 62 65 59 59 62 44 56 77 87 93 96 89 72 68 60 51 45
125 130 129 105 101 96 101 82 62 66 49 54 46 25 23 35 61 69 44 51 72 65 58 71 66 73 77 78 77 64 61 51 46 64 70 68 67 87 88 75 66 56 49
114 121 111 103 104 101 90 87 68 58 52 51 53 40 23 24 41 54 53 66 70 68 58 65 70 74 82 84 88 74 64 64 53 50 55 51 44 60 71 80 71 60 53
123 123 127 137 118 107 84 88 86 80 72 60 59 41 29 38 37 46 48 60 65 83 88 85 74 77 83 95 83 65 46 60 70 57 51 54 45 40 52 59 52 59 56
150 154 142 127 118 108 89 105 108 101 100 92 63 39 37 42 30 43 63 70 69 70 67 72 68 59 54 91 107 110 82 37 41 54 53 60 52 38 45 55 44 52 56
164 169 134 126 121 117 98 76 80 72 78 84 76 49 41 42 30 33 40 57 79 84 89 95 89 76 51 39 85 112 125 129 103 29 55 62 56 46 41 47 46 49 58
166 151 134 132 123 111 108 99 115 113 103 105 109 115 82 63 51 36 40 38 66 74 77 81 83 80 70 38 25 31 88 130 128 101 35 53 59 55 48 52 47 47 55
154 151 131 119 114 110 114 113 103 100 109 105 105 104 91 64 59 48 52 51 61 64 64 61 57 46 58 52 44 36 37 33 79 116 112 70 52 51 55 54 51 50 54
143 136 117 115 113 118 137 143 129 127 126 116 112 111 111 95 67 58 63 59 67 68 70 72 73 62 53 46 41 49 52 56 55 83 106 112 95 72 64 57 58 56 63